TimeCST,TemperatureF,Dew PointF,Humidity,Sea Level PressureIn,VisibilityMPH,Wind Direction,Wind SpeedMPH,Gust SpeedMPH,PrecipitationIn,Events,Conditions,WindDirDegrees,DateUTC
12:15 AM,15.8,6.8,68,29.97,5.0,NNW,21.9,31.1,N/A,,Overcast,340,2014-01-22 06:15:00
12:35 AM,14.0,6.8,73,29.97,10.0,NNW,18.4,23.0,N/A,,Overcast,340,2014-01-22 06:35:00
12:55 AM,14.0,8.6,79,29.97,10.0,NNW,18.4,-,N/A,,Overcast,340,2014-01-22 06:55:00
1:15 AM,14.0,8.6,79,29.97,10.0,NNW,13.8,23.0,N/A,,Overcast,340,2014-01-22 07:15:00
1:35 AM,12.2,6.8,79,29.97,6.0,NNW,25.3,28.8,N/A,,Mostly Cloudy,340,2014-01-22 07:35:00
1:55 AM,12.2,3.2,67,29.98,2.0,NNW,23.0,33.4,N/A,,Scattered Clouds,340,2014-01-22 07:55:00
2:15 AM,10.4,5.0,79,29.99,10.0,NNW,17.3,-,N/A,,Mostly Cloudy,330,2014-01-22 08:15:00
2:35 AM,10.4,3.2,73,30.00,10.0,NNW,17.3,25.3,N/A,,Mostly Cloudy,330,2014-01-22 08:35:00
2:55 AM,10.4,5.0,79,30.00,5.0,NNW,19.6,26.5,N/A,,Mostly Cloudy,340,2014-01-22 08:55:00
3:15 AM,10.4,5.0,79,30.01,9.0,NNW,17.3,-,N/A,,Overcast,330,2014-01-22 09:15:00
3:35 AM,10.4,5.0,79,30.01,7.0,NNW,18.4,25.3,N/A,,Overcast,330,2014-01-22 09:35:00
3:55 AM,10.4,3.2,73,30.01,10.0,NNW,17.3,-,N/A,,Overcast,330,2014-01-22 09:55:00
4:15 AM,10.4,3.2,73,30.01,10.0,NW,15.0,-,N/A,,Mostly Cloudy,320,2014-01-22 10:15:00
4:35 AM,10.4,3.2,73,30.01,10.0,NW,13.8,-,N/A,,Overcast,320,2014-01-22 10:35:00
4:55 AM,10.4,3.2,73,30.01,10.0,NW,16.1,-,N/A,,Overcast,310,2014-01-22 10:55:00
5:15 AM,10.4,3.2,73,30.00,10.0,WNW,17.3,-,N/A,,Overcast,300,2014-01-22 11:15:00
5:35 AM,10.4,3.2,73,29.98,10.0,West,16.1,-,N/A,,Overcast,280,2014-01-22 11:35:00
5:55 AM,10.4,3.2,73,29.97,10.0,WNW,13.8,-,N/A,,Overcast,290,2014-01-22 11:55:00
6:15 AM,12.2,3.2,67,29.97,10.0,West,12.7,-,N/A,,Overcast,280,2014-01-22 12:15:00
6:35 AM,12.2,5.0,73,30.00,10.0,NW,16.1,-,N/A,,Overcast,320,2014-01-22 12:35:00
6:55 AM,14.0,5.0,67,30.02,10.0,NNW,13.8,-,N/A,,Mostly Cloudy,330,2014-01-22 12:55:00
7:15 AM,12.2,6.8,79,30.03,3.0,North,21.9,27.6,N/A,,Overcast,350,2014-01-22 13:15:00
7:35 AM,12.2,5.0,73,30.04,1.2,NNW,21.9,-,N/A,,Overcast,340,2014-01-22 13:35:00
7:55 AM,10.4,3.2,73,30.05,0.8,North,23.0,29.9,N/A,,Mostly Cloudy,350,2014-01-22 13:55:00
8:15 AM,10.4,3.2,73,30.05,1.0,North,21.9,27.6,N/A,,Clear,350,2014-01-22 14:15:00
8:35 AM,8.6,1.4,73,30.07,1.2,NNW,23.0,26.5,N/A,,Mostly Cloudy,340,2014-01-22 14:35:00
8:55 AM,8.6,1.4,73,30.08,1.0,North,24.2,31.1,N/A,,Overcast,350,2014-01-22 14:55:00
9:15 AM,6.8,-2.2,67,30.11,0.2,North,28.8,35.7,N/A,,Mostly Cloudy,360,2014-01-22 15:15:00
9:35 AM,5.0,-2.2,72,30.12,0.5,North,27.6,32.2,N/A,,Mostly Cloudy,350,2014-01-22 15:35:00
9:55 AM,3.2,-2.2,78,30.14,0.2,North,29.9,39.1,N/A,,Mostly Cloudy,350,2014-01-22 15:55:00
10:15 AM,-0.4,-9.4,66,30.16,0.2,NNW,29.9,39.1,N/A,,Unknown,340,2014-01-22 16:15:00
10:35 AM,-0.4,-9.4,66,30.18,0.5,NNW,27.6,36.8,N/A,,Unknown,330,2014-01-22 16:35:00
10:55 AM,-0.4,-9.4,66,30.19,0.5,NNW,31.1,39.1,N/A,,Unknown,330,2014-01-22 16:55:00
11:15 AM,-0.4,-9.4,66,30.20,0.5,North,28.8,38.0,N/A,,Unknown,350,2014-01-22 17:15:00
11:35 AM,-0.4,-9.4,66,30.20,0.5,NNW,29.9,35.7,N/A,,Unknown,330,2014-01-22 17:35:00
11:55 AM,-2.2,-11.2,66,30.20,0.2,NNW,32.2,40.3,N/A,,Mostly Cloudy,340,2014-01-22 17:55:00
12:15 PM,-0.4,-7.6,72,30.21,0.5,NNW,33.4,39.1,N/A,,Mostly Cloudy,330,2014-01-22 18:15:00
12:35 PM,-2.2,-9.4,71,30.21,0.5,NNW,33.4,40.3,N/A,,Mostly Cloudy,340,2014-01-22 18:35:00
12:55 PM,-2.2,-9.4,71,30.22,1.0,NW,29.9,36.8,N/A,,Mostly Cloudy,320,2014-01-22 18:55:00
1:15 PM,-2.2,-11.2,66,30.23,0.8,NNW,34.5,41.4,N/A,,Mostly Cloudy,340,2014-01-22 19:15:00
1:35 PM,-2.2,-9.4,71,30.23,1.2,NNW,33.4,38.0,N/A,,Clear,340,2014-01-22 19:35:00
1:55 PM,-2.2,-11.2,66,30.24,1.2,NNW,28.8,38.0,N/A,,Scattered Clouds,340,2014-01-22 19:55:00
2:15 PM,-2.2,-9.4,71,30.25,1.2,NNW,31.1,39.1,N/A,,Clear,340,2014-01-22 20:15:00
2:35 PM,-2.2,-9.4,71,30.25,1.2,NNW,36.8,42.6,N/A,,Clear,340,2014-01-22 20:35:00
2:55 PM,-2.2,-9.4,71,30.27,1.8,NNW,29.9,38.0,N/A,,Clear,340,2014-01-22 20:55:00
3:15 PM,-0.4,-9.4,66,30.28,2.0,NNW,29.9,39.1,N/A,,Scattered Clouds,340,2014-01-22 21:15:00
3:35 PM,-2.2,-11.2,66,30.30,2.0,North,31.1,40.3,N/A,,Scattered Clouds,350,2014-01-22 21:35:00
3:55 PM,-2.2,-9.4,71,30.32,5.0,NNW,27.6,36.8,N/A,,Partly Cloudy,330,2014-01-22 21:55:00
4:15 PM,-2.2,-11.2,66,30.34,10.0,NNW,23.0,33.4,N/A,,Partly Cloudy,330,2014-01-22 22:15:00
4:35 PM,-2.2,-13.0,60,30.34,5.0,NNW,28.8,39.1,N/A,,Clear,340,2014-01-22 22:35:00
4:55 PM,-2.2,-11.2,66,30.36,10.0,NNW,26.5,32.2,N/A,,Clear,330,2014-01-22 22:55:00
5:15 PM,-4.0,-13.0,65,30.37,6.0,NNW,26.5,35.7,N/A,,Clear,340,2014-01-22 23:15:00
5:35 PM,-4.0,-11.2,71,30.38,7.0,NNW,29.9,35.7,N/A,,Clear,340,2014-01-22 23:35:00
5:55 PM,-4.0,-13.0,65,30.39,10.0,NNW,26.5,35.7,N/A,,Clear,330,2014-01-22 23:55:00
6:15 PM,-5.8,-13.0,71,30.41,10.0,NNW,25.3,33.4,N/A,,Clear,330,2014-01-23 00:15:00
6:35 PM,-5.8,-11.2,77,30.42,7.0,NNW,25.3,33.4,N/A,,Clear,330,2014-01-23 00:35:00
6:55 PM,-5.8,-13.0,71,30.44,10.0,NNW,21.9,31.1,N/A,,Clear,330,2014-01-23 00:55:00
7:15 PM,-5.8,-13.0,71,30.45,8.0,NNW,24.2,35.7,N/A,,Clear,330,2014-01-23 01:15:00
7:35 PM,-5.8,-14.8,65,30.46,10.0,NNW,21.9,31.1,N/A,,Clear,340,2014-01-23 01:35:00
7:55 PM,-5.8,-13.0,71,30.47,10.0,NNW,23.0,27.6,N/A,,Clear,330,2014-01-23 01:55:00
8:15 PM,-5.8,-14.8,65,30.47,10.0,NNW,21.9,31.1,N/A,,Clear,330,2014-01-23 02:15:00
8:35 PM,-5.8,-13.0,71,30.48,10.0,NNW,24.2,31.1,N/A,,Clear,330,2014-01-23 02:35:00
8:55 PM,-5.8,-14.8,65,30.49,7.0,NNW,26.5,32.2,N/A,,Clear,340,2014-01-23 02:55:00
9:15 PM,-5.8,-14.8,65,30.50,7.0,NNW,23.0,32.2,N/A,,Clear,340,2014-01-23 03:15:00
9:35 PM,-5.8,-13.0,71,30.51,7.0,NNW,23.0,32.2,N/A,,Clear,340,2014-01-23 03:35:00
9:55 PM,-7.6,-13.0,77,30.53,10.0,NNW,20.7,26.5,N/A,,Clear,330,2014-01-23 03:55:00
10:15 PM,-7.6,-13.0,77,30.53,10.0,NNW,21.9,27.6,N/A,,Clear,330,2014-01-23 04:15:00
10:35 PM,-7.6,-14.8,71,30.54,10.0,NNW,18.4,26.5,N/A,,Clear,330,2014-01-23 04:35:00
10:55 PM,-7.6,-14.8,71,30.54,10.0,NNW,18.4,23.0,N/A,,Clear,340,2014-01-23 04:55:00
11:15 PM,-7.6,-14.8,71,30.55,10.0,NNW,18.4,26.5,N/A,,Clear,330,2014-01-23 05:15:00
11:35 PM,-7.6,-14.8,71,30.56,10.0,NNW,18.4,23.0,N/A,,Scattered Clouds,330,2014-01-23 05:35:00
11:55 PM,-7.6,-14.8,71,30.56,9.0,NNW,20.7,-,N/A,,Overcast,340,2014-01-23 05:55:00